Regional Weather Roundup
Issued by NWS

Home | Current Version | Previous Version | Text Only | Print | Product List | Glossary On
Versions: 1 2 3 4 5 6 7 8 9 10 11 12 13 14 15 16 17 18 19 20 21 22 23 24 25 26 27 28 29 30 31 32 33 34 35 36 37 38 39 40 41 42 43 44 45 46 47 48 49 50
000
ASUS43 KMPX 221701
RWRMN
WEATHER ROUNDUP FOR MINNESOTA
NATIONAL WEATHER SERVICE TWIN CITIES/CHANHASSEN MN
1100 AM CST SUN JAN 22 2017


NOTE: "FAIR" INDICATES FEW OR NO CLOUDS BELOW 12,000 FEET WITH NO
SIGNIFICANT WEATHER AND/OR OBSTRUCTIONS TO VISIBILITY. N/A MEANS
CURRENT SKY AND/OR WEATHER CONDITIONS ARE NOT AVAILABLE.

MNZ060>063-068>070-221800-
   Twin Cities Metro

CITY           SKY/WX    TMP DP  RH WIND       PRES   REMARKS
TWIN CITIES    CLOUDY    38  34  85 N5        29.72R
ST PAUL        CLOUDY    37  37 100 NW7       29.73R FOG
CRYSTAL        CLOUDY    38  34  85 NW5       29.71R
BLAINE         CLOUDY    37  37 100 W6        29.71R
LAKEVILLE      CLOUDY    34  34 100 NW5       29.71R FOG     WCI  30
EDEN PRAIRIE   CLOUDY    38  34  85 NW7       29.71R
SOUTH ST PAUL  CLOUDY    37  36  95 NW5       29.72R
LAKE ELMO      CLOUDY    36  36 100 NW3       29.72R
$$
MNZ001>005-007-008-013>017-022>024-027-028-221800-
   Northwest Minnesota

CITY           SKY/WX    TMP DP  RH WIND       PRES   REMARKS
BEMIDJI        CLOUDY    33  33 100 W3        29.71R FOG
HALLOCK        FOG       34  34 100 CALM      29.72R VSB<1/4
ROSEAU         HAZE      36  30  80 CALM      29.71R VSB 1/2
WARROAD        FOG       34  30  86 CALM      29.72R VSB 1/4
THIEF RVR FALL FOG       34  33  96 W5        29.73R VSB<1/4 WCI  30
CROOKSTON      FOG       34  34 100 W5        29.74R VSB 1/2 WCI  30
FOSSTON        FOG       34  34 100 SW3       29.72R VSB<1/4
DETROIT LAKES  FOG       34  34 100 W5        29.74R VSB 1/4 WCI  30
MOORHEAD       CLOUDY    32  30  93 W12       29.77R FOG     WCI  23
PARK RAPIDS    CLOUDY    35  32  88 W5        29.70S FOG     WCI  31
MAHNOMEN       FOG       32  32  99 W5        29.72R VSB 1/4 WCI  28
$$
MNZ006-009>011-018-025>026-221800-
   North Central Minnesota

CITY           SKY/WX    TMP DP  RH WIND       PRES   REMARKS
BAUDETTE       CLOUDY    35  34  96 CALM      29.70R
FLAG ISLAND    CLOUDY    34  34 100 CALM      29.70S
INTL FALLS     FOG       35  34  96 N3        29.69S VSB 1/2
WASKISH        FOG       36  34  93 CALM      29.71R VSB 1/2
BIG FORK       CLOUDY    36  36 100 N3        29.69R
LONGVILLE      CLOUDY    36  36 100 CALM      29.70S FOG
GRAND RAPIDS   FOG       37  36  96 NW3       29.71R VSB 1/4
CRANE LAKE     CLOUDY    34  32  93 CALM      29.71R
ORR            CLOUDY    34  32  93 CALM      29.67R
COOK           CLOUDY    34  34 100 CALM      29.69R
WALKER         FOG       33  33  99 CALM      29.71R VSB 1
$$
MNZ012-019>021-037-221800-
   Northeast Minnesota

CITY           SKY/WX    TMP DP  RH WIND       PRES   REMARKS
DULUTH         CLOUDY    35  34  96 NW5       29.67R FOG     WCI  31
ELY            CLOUDY    34  34 100 CALM      29.67R
HIBBING        CLOUDY    33  33 100 NW3       29.68R
EVELETH        CLOUDY    35  33  93 NE3       29.69R
DULUTH HARBOR  CLOUDY    36  34  93 CALM      29.71R FOG
TWO HARBORS    CLOUDY    39  34  81 CALM      29.66R
SILVER BAY     CLOUDY    37  37 100 CALM      29.66R FOG
GRAND MARAIS     N/A     39  34  82 N5        29.67R
G MARAIS ARPRT CLOUDY    34  28  80 N6        29.64S FOG     WCI  29
$$
MNZ029>031-032-039>041-046>048-054>057-064-221800-
   West Central Minnesota

CITY           SKY/WX    TMP DP  RH WIND       PRES   REMARKS
FERGUS FALLS   FOG       32  32 100 W10       29.80R VSB 1/4 WCI  24
WHEATON        CLOUDY    36  36 100 W9        29.80R FOG
MORRIS         CLOUDY    34  32  93 NW12      29.76R FOG     WCI  25
ALEXANDRIA     FOG       33  33 100 W7        29.74R VSB 1/2 WCI  27
ELBOW LAKE     SNOW      32  32 100 NW8       29.76R VSB 1/4 WCI  25
WADENA         CLOUDY    34  34 100 W3        29.72R FOG
GLENWOOD       FOG       34  34 100 W7        29.74S VSB 1/4 WCI  28
APPLETON       CLOUDY    36  34  93 NW8       29.77R FOG
ORTONVILLE     CLOUDY    34  32  93 CALM      29.77S
MADISON        CLOUDY    37  37 100 NW9       29.77S FOG
WILLMAR        FOG       36  36 100 NW9       29.76R VSB 1
$$
MNZ033>034-036-042>043-049>051-058-059-221800-
   Central Minnesota

CITY           SKY/WX    TMP DP  RH WIND       PRES   REMARKS
ST CLOUD       CLOUDY    36  36 100 NW6       29.72R
SAUK CENTRE    CLOUDY    34  34 100 W6        29.74R FOG     WCI  29
PAYNESVILLE    CLOUDY    34  35 100 W3        29.74R FOG
AITKIN         CLOUDY    37  34  87 CALM      29.70R
PINE RIVER     CLOUDY    36  36 100 CALM      29.75R
BRAINERD       CLOUDY    35  34  96 CALM      29.72R FOG
STAPLES        CLOUDY    36  36 100 W3        29.72R
LONG PRAIRIE   CLOUDY    34  34 100 CALM      29.73R FOG
LITTLE FALLS   CLOUDY    34  34 100 NW5       29.73R FOG     WCI  30
LITCHFIELD     CLOUDY    36  36 100 W3        29.74R FOG
BUFFALO        CLOUDY    36  35  96 NW5       29.74R FOG
MAPLE LAKE     CLOUDY    36  37 100 NW5       29.73S FOG
HUTCHINSON     CLOUDY    35  36 100 NW6       29.75R FOG     WCI  30
$$
MNZ037-044-045-052-053-221800-
   East Central Minnesota

CITY           SKY/WX    TMP DP  RH WIND       PRES   REMARKS
PRINCETON      CLOUDY    37  36  93 W3        29.72S
MORA           CLOUDY    34  34 100 NW5       29.72R WCI  30
CAMBRIDGE      CLOUDY    37  37 100 NW3       29.70R
RUSH CITY      CLOUDY    36  34  93 NW3       29.71R
MOOSE LAKE     CLOUDY    36  34  93 CALM      29.68S
HINCKLEY       CLOUDY    36  36 100 NW3       29.70S
CLOQUET        CLOUDY    36  34  93 W5        29.68S FOG
MCGREGOR       CLOUDY    36  34  93 NW6       29.71R
$$
MNZ071>073-080-081-089-090-097-098-221800-
   Southwest Minnesota

CITY           SKY/WX    TMP DP  RH WIND       PRES   REMARKS
MONTEVIDEO     CLOUDY    34  34 100 N8        29.79R FOG     WCI  27
GRANITE FALLS  FOG       35  35 100 W10       29.78R VSB 1/2 WCI  27
CANBY          CLOUDY    35  34  94 CALM      29.78S
MARSHALL       CLOUDY    36  34  92 NW14      29.77R FOG
REDWOOD FALLS  CLOUDY    35  34  96 NW10      29.75R WCI  27
OLIVIA         CLOUDY    34  34 100 NW10      29.74R FOG     WCI  26
PIPESTONE      CLOUDY    34  34 100 NW12      29.75R FOG     WCI  25
WINDOM         FOG       36  36 100 NW14      29.74R VSB 1/2
WORTHINGTON    MIX PCPN  35  34  96 NW13      29.75R FOG     WCI  26
JACKSON        FOG       32  32 100 NW12      29.74R VSB 3/4 WCI  23
TRACY          CLOUDY    36  36 100 N10       29.76R FOG
SLAYTON        CLOUDY    34  34  99 NW10      29.75R FOG     WCI  26
$$
MNZ065>067-074>077-082>085-091>093-221800-
   South Central Minnesota

CITY           SKY/WX    TMP DP  RH WIND       PRES   REMARKS
MANKATO        CLOUDY    35  35 100 NW9       29.73S FOG     WCI  28
NEW ULM        CLOUDY    36  36 100 NW8       29.74R FOG
ST JAMES       CLOUDY    36  36 100 NW12      29.75R FOG
FAIRMONT       CLOUDY    35  35 100 NW9       29.74R FOG     WCI  28
GLENCOE        CLOUDY    37  37 100 NW6       29.73R FOG
OWATONNA       CLOUDY    36  34  93 NW7       29.71R FOG
WASECA         CLOUDY    34  34 100 NW9       29.73R FOG     WCI  26
ALBERT LEA     CLOUDY    36  36 100 CALM      29.70S FOG
$$
MNZ078>079-086>088-094>096-221800-
   Southeast Minnesota

CITY           SKY/WX    TMP DP  RH WIND       PRES   REMARKS
ROCHESTER      FOG       34  34 100 NW7       29.69R VSB 1/4 WCI  28
RED WING       CLOUDY    36  36 100 NW3       29.70S FOG
STANTON        CLOUDY    36  35  96 NW3       29.70S FOG
DODGE CENTER   FOG       34  34 100 CALM      29.69S VSB 3/4
WINONA         CLOUDY    36  36 100 NW3       29.70R FOG
AUSTIN         FOG       34  34 100 NW6       29.70R VSB 1   WCI  29
PRESTON        FOG       33  32  97 NW6       29.69R VSB 1/4 WCI  28
$$
ABBREVIATIONS USED IN REMARKS
   TC - TEMPERATURES IN CELSIUS
  WCI - WIND CHILL INDEX
   HX - HEAT INDEX
  VSB - VISIBILITY
$$




USA.gov is the U.S. government's official web portal to all federal, state and local government web resources and services.